User: anonymous   Login
Location: Unspecified
(0.0000°N, 0.0000°E)
Time: 20:04:46
(UTC+02:00)
Language:

AO-7 - Orbit

View from above orbital plane
View from above orbital plane
View from above satellite
View from above satellite

Ground track
Ground track

The orbit data is extracted from the following two-line orbital elements,

1 07530U 74089B   16126.20613584 -.00000045  00000-0 -70334-5 0  9991
2 07530 101.5708  98.0159 0012363  36.0945  34.4934 12.53621076897737
Epoch (UTC): 05 May 2016 04:56:50
Eccentricity: 0.0012363
inclination: 101.5708°
perigee height: 1440 km
apogee height: 1459 km
right ascension of ascending node: 98.0159°
argument of perigee: 36.0945°
revolutions per day: 12.53621076
mean anomaly at epoch: 34.4934°
orbit number at epoch: 89773

The dashed part of the orbit path shows where the satellite is in the earth's shadow,  

DLR